Location: Fours
(44.3167°N, 6.7000°E)
Time: 02:39:06
(UTC+00:00)

Cosmos 2098 - Pass Details

Date: 05 June 2022
Orbit: 387 x 1576 km, 82.9° (Epoch: 04 July)

Event Time Altitude Azimuth Distance (km) Brightness Sun altitude
Rises 03:06:16 0° 329° (NNW) 2,302 8.1 -7.1°
Reaches altitude 10° 03:08:59 10° 300° (WNW) 1,499 6.9 -6.8°
Maximum altitude 03:10:32 13° 270° (W) 1,371 6.4 -6.5°
Drops below altitude 10° 03:12:13 10° 240° (WSW) 1,619 6.6 -6.3°
Enters shadow 03:12:55 - 231° (SW) 1,812 6.8 -6.2°
